This demonstration page uses our WeatherBlox Daily Observations layout. Learn more.

Left ArrowRight Arrow

44.8408, -93.29828

Hourly Observations for May 30, 2021

Temp ( °F °C ) Dew Point ( °F °C ) Humidity (%) Winds ( mph kmh ) Pressure ( in mb ) Visibility ( mi km ) Precip ( " mm )
12:53 am 00:53 Cloudy with Light Rain 56 13.3 44 6.7 65 65 SSE 8 13 30.19 1022 10 16 0.01 0.25
1:53 am 01:53 Cloudy 55 12.8 43 6.1 64 64 SSE 6 9 30.19 1022 10 16 0.00 0.00
2:53 am 02:53 Cloudy 57 13.9 41 5 55 55 SSE 6 9 30.18 1022 10 16 0.00 0.00
3:53 am 03:53 Cloudy 57 13.9 39 3.9 51 51 S 9 15 30.19 1022 10 16 0.00 0.00
4:53 am 04:53 Cloudy 56 13.3 40 4.4 55 55 S 10 17 30.18 1022 10 16 0.00 0.00
5:53 am 05:53 Mostly Cloudy 56 13.3 40 4.4 55 55 SSW 7 11 30.19 1022 10 16 0.00 0.00
6:53 am 06:53 Cloudy 56 13.3 40 4.4 55 55 SW 9 15 30.20 1023 10 16 0.00 0.00
7:53 am 07:53 Cloudy 55 12.8 42 5.6 62 62 SSW 9 15 30.20 1023 10 16 0.00 0.00
8:53 am 08:53 Cloudy 55 12.8 43 6.1 64 64 SSW 9 15 30.20 1023 10 16 0.00 0.00
9:53 am 09:53 Cloudy 56 13.3 44 6.7 65 65 SW 8 13 30.19 1023 10 16 0.00 0.00
10:53 am 10:53 Cloudy 55 12.8 45 7.2 69 69 SSW 8 13 30.20 1023 10 16 0.00 0.00
11:13 am 11:13 Cloudy 55 12.8 46 7.8 72 72 SSW 7 11 30.19 1022 8 13 0.00 0.00
11:53 am 11:53 Cloudy 54 12.2 47 8.3 77 77 SSE 7 11 30.19 1023 8 13 0.00 0.00
12:33 pm 12:33 Cloudy with Mist and Fog 54 12.2 50 10 87 87 S 8 13 30.19 1022 6 10 0.00 0.00
12:53 pm 12:53 Cloudy with Mist and Fog 54 12.2 51 10.6 90 90 S 9 15 30.19 1022 4 6 0.00 0.00
1:01 pm 13:01 Cloudy with Mist and Fog 54 12.2 51 10.6 90 90 SSE 9 15 30.18 1022 6 10 0.00 0.00
1:53 pm 13:53 Cloudy 56 13.3 52 11.1 87 87 SSW 8 13 30.18 1022 10 16 0.00 0.00
2:30 pm 14:30 Cloudy 57 13.9 52 11.1 83 83 SW 9 15 30.18 1022 10 16 0.00 0.00
2:53 pm 14:53 Cloudy 57 13.9 52 11.1 83 83 SSW 9 15 30.18 1022 10 16 0.00 0.00
3:53 pm 15:53 Cloudy 59 15 53 11.7 81 81 SSW 8 13 30.18 1022 10 16 0.00 0.00
4:18 pm 16:18 Cloudy 60 15.6 53 11.7 78 78 S 7 11 30.15 1021 10 16 0.00 0.00
4:53 pm 16:53 Cloudy 61 16.1 53 11.7 75 75 S 12 19 30.16 1022 10 16 0.00 0.00
5:53 pm 17:53 Cloudy 60 15.6 53 11.7 78 78 S 9 15 30.16 1021 10 16 0.00 0.00
6:53 pm 18:53 Cloudy 60 15.6 53 11.7 78 78 SSW 12 19 30.15 1021 10 16 0.00 0.00
7:53 pm 19:53 Cloudy 60 15.6 53 11.7 78 78 SSW 12 19 30.16 1021 10 16 0.00 0.00
8:53 pm 20:53 Cloudy 60 15.6 53 11.7 78 78 SSW 9 15 30.15 1021 10 16 0.00 0.00
9:53 pm 21:53 Cloudy 60 15.6 53 11.7 78 78 SSW 6 9 30.16 1021 10 16 0.00 0.00
10:53 pm 22:53 Cloudy 60 15.6 53 11.7 78 78 SSW 9 15 30.16 1021 10 16 0.00 0.00
11:53 pm 23:53 Cloudy 60 15.6 52 11.1 75 75 WSW 8 13 30.17 1022 10 16 0.00 0.00

Powered by AerisWeather